This demonstration page uses our WeatherBlox Daily Observations layout. Learn more.

Left ArrowRight Arrow

41.12389, -100.76542

Hourly Observations for March 3, 2020

Temp ( °F °C ) Dew Point ( °F °C ) Humidity (%) Winds ( mph kmh ) Pressure ( in mb ) Visibility ( mi km ) Precip ( " mm )
12:53 am 00:53 Clear 27 -2.8 18 -7.8 69 69 NW 3 6 29.83 1010 10 16 0.00 0.00
1:53 am 01:53 Clear 25 -3.9 18 -7.8 75 75 NW 5 7 29.84 1011 10 16 0.00 0.00
2:53 am 02:53 Clear 27 -2.8 20 -6.7 75 75 NNW 7 11 29.84 1011 10 16 0.00 0.00
3:53 am 03:53 Clear 30 -1.1 22 -5.6 72 72 WNW 7 11 29.82 1010 10 16 0.00 0.00
4:53 am 04:53 Clear 31 -0.6 22 -5.6 69 69 WNW 13 20 29.83 1010 10 16 0.00 0.00
5:53 am 05:53 Clear 26 -3.3 19 -7.2 75 75 N 5 7 29.85 1011 10 16 0.00 0.00
6:53 am 06:53 Clear 25 -3.9 19 -7.2 78 78 NW 5 7 29.88 1012 10 16 0.00 0.00
7:53 am 07:53 Sunny 26 -3.3 20 -6.7 78 78 NNW 7 11 29.88 1012 10 16 0.00 0.00
8:53 am 08:53 Sunny 36 2.2 22 -5.6 57 57 NW 13 20 29.86 1011 10 16 0.00 0.00
9:53 am 09:53 Sunny 44 6.7 22 -5.6 41 41 W 14 22 29.87 1011 10 16 0.00 0.00
10:53 am 10:53 Sunny 50 10 22 -5.6 33 33 WNW 12 19 29.84 1011 10 16 0.00 0.00
11:53 am 11:53 Sunny 55 12.8 20 -6.7 25 25 WNW 18 30 29.81 1010 10 16 0.00 0.00
12:53 pm 12:53 Sunny 59 15 22 -5.6 24 24 WNW 26 43 29.78 1009 10 16 0.00 0.00
1:53 pm 13:53 Mostly Sunny 61 16.1 21 -6.1 21 21 WNW 28 44 29.75 1008 10 16 0.00 0.00
2:53 pm 14:53 Sunny 63 17.2 21 -6.1 20 20 W 24 39 29.71 1006 10 16 0.00 0.00
3:53 pm 15:53 Sunny 64 17.8 22 -5.6 20 20 WNW 22 35 29.72 1006 10 16 0.00 0.00
4:53 pm 16:53 Cloudy 61 16.1 23 -5 23 23 NNW 17 28 29.75 1007 10 16 0.00 0.00
5:53 pm 17:53 Partly Cloudy 58 14.4 24 -4.4 27 27 N 17 28 29.81 1009 10 16 0.00 0.00
6:53 pm 18:53 Clear 53 11.7 25 -3.9 34 34 N 28 44 29.88 1012 10 16 0.00 0.00
7:53 pm 19:53 Clear 45 7.2 31 -0.6 58 58 N 14 22 29.95 1014 10 16 0.00 0.00
8:53 pm 20:53 Clear 39 3.9 29 -1.7 67 67 WNW 9 15 29.96 1015 10 16 0.00 0.00
9:53 pm 21:53 Clear 37 2.8 29 -1.7 73 73 NW 9 15 29.99 1016 10 16 0.00 0.00
10:53 pm 22:53 Clear 31 -0.6 26 -3.3 82 82 NNW 6 9 30.02 1017 10 16 0.00 0.00
11:53 pm 23:53 Clear 31 -0.6 27 -2.8 85 85 NNW 6 9 30.03 1017 10 16 0.00 0.00

Powered by AerisWeather